Location: Budapest
(47.4979°N, 19.0402°E)
Time: 05:28:52
(UTC+02:00)

ISS - Visible Passes

Search period start: 18 October 2019 00:00
Search period end: 27 October 2019 23:00
Orbit: 411 x 421 km, 51.6° (Epoch: 17 October)

Date Brightness Start Highest point End Pass type
(mag) Time Alt. Az. Time Alt. Az. Time Alt. Az.
25 Oct -1.3 06:01:49 10° S 06:04:24 21° SE 06:07:00 10° E visible
26 Oct -0.9 05:14:20 10° SSE 05:16:02 13° SE 05:17:44 10° ESE visible
27 Oct -2.8 05:00:51 12° SW 05:03:44 46° SSE 05:06:58 10° ENE visible
